| time (UTC) | temp F | wind direction | speed MPH | gust MPH | rain 1hr in | rain 24hr in | rain mn in | humidity % | barometer mb |
| 20260906201604 | 94 | 203 | 9.0 | 21.0 | 0.00 | 0.00 | 0.00 | 34 | 1015.0 |
| 20260906200109 | 94 | 112 | 8.0 | 19.0 | 0.00 | 0.00 | 0.00 | 35 | 1015.2 |
| 20260906194606 | 93 | 165 | 9.0 | 28.0 | 0.00 | 0.00 | 0.00 | 33 | 1015.4 |
| 20260906193104 | 93 | 83 | 7.0 | 20.0 | 0.00 | 0.00 | 0.00 | 35 | 1015.7 |
| 20260906191604 | 93 | 163 | 5.0 | 16.0 | 0.00 | 0.00 | 0.00 | 35 | 1015.8 |
| 20260906190110 | 92 | 172 | 4.0 | 13.0 | 0.00 | 0.00 | 0.00 | 37 | 1016.1 |
| 20260906184628 | 91 | 84 | 4.0 | 13.0 | 0.00 | 0.00 | 0.00 | 40 | 1016.2 |
| 20260906183102 | 91 | 58 | 4.0 | 13.0 | 0.00 | 0.00 | 0.00 | 41 | 1016.6 |
| 20260906181602 | 89 | 193 | 4.0 | 15.0 | 0.00 | 0.00 | 0.00 | 42 | 1017.1 |
| 20260906174601 | 87 | 135 | 4.0 | 13.0 | 0.00 | 0.00 | 0.00 | 48 | 1017.5 |
| 20260906173121 | 86 | 110 | 3.0 | 12.0 | 0.00 | 0.00 | 0.00 | 49 | 1017.8 |
| 20260906171608 | 85 | 37 | 3.0 | 14.0 | 0.00 | 0.00 | 0.00 | 52 | 1018.1 |
| 20260906170112 | 83 | 116 | 4.0 | 17.0 | 0.00 | 0.00 | 0.00 | 56 | 1018.3 |
| 20260906164604 | 82 | 57 | 3.0 | 17.0 | 0.00 | 0.00 | 0.00 | 57 | 1018.4 |
| 20260906163105 | 81 | 111 | 6.0 | 19.0 | 0.00 | 0.00 | 0.00 | 59 | 1018.3 |
| 20260906161606 | 79 | 62 | 4.0 | 16.0 | 0.00 | 0.00 | 0.00 | 63 | 1018.5 |
| 20260906160104 | 78 | 116 | 8.0 | 16.0 | 0.00 | 0.00 | 0.00 | 66 | 1018.6 |
| 20260906154601 | 77 | 58 | 6.0 | 17.0 | 0.00 | 0.00 | 0.00 | 70 | 1018.4 |
| 20260906153102 | 76 | 64 | 6.0 | 13.0 | 0.00 | 0.00 | 0.00 | 71 | 1018.4 |
| 20260906151602 | 74 | 116 | 7.0 | 20.0 | 0.00 | 0.00 | 0.00 | 75 | 1018.4 |
| 20260906150121 | 73 | 64 | 6.0 | 14.0 | 0.00 | 0.00 | 0.00 | 77 | 1018.2 |
| 20260906144611 | 72 | 66 | 7.0 | 15.0 | 0.00 | 0.00 | 0.00 | 77 | 1018.3 |
| 20260906143104 | 72 | 101 | 4.0 | 13.0 | 0.00 | 0.00 | 0.00 | 78 | 1018.5 |
| 20260906141611 | 72 | 65 | 5.0 | 11.0 | 0.00 | 0.00 | 0.00 | 80 | 1018.5 |
| 20260906140116 | 73 | 83 | 5.0 | 14.0 | 0.00 | 0.00 | 0.00 | 78 | 1018.2 |
| 20260906134624 | 74 | 65 | 3.0 | 6.0 | 0.00 | 0.00 | 0.00 | 73 | 1017.8 |
| 20260906133106 | 74 | 62 | 1.0 | 3.0 | 0.00 | 0.00 | 0.00 | 72 | 1017.5 |
| 20260906131602 | 74 | 0 | 1.0 | 3.0 | 0.00 | 0.00 | 0.00 | 71 | 1017.2 |
| 20260906130148 | 74 | 80 | 1.0 | 3.0 | 0.00 | 0.00 | 0.00 | 71 | 1016.9 |
| 20260906124611 | 73 | 123 | 0.0 | 3.0 | 0.00 | 0.00 | 0.00 | 71 | 1016.5 |
| 20260906123105 | 73 | 129 | 0.0 | 5.0 | 0.00 | 0.00 | 0.00 | 71 | 1016.3 |
| 20260906121610 | 73 | 181 | 2.0 | 7.0 | 0.00 | 0.00 | 0.00 | 70 | 1016.2 |
| 20260906120110 | 73 | 184 | 1.0 | 5.0 | 0.00 | 0.00 | 0.00 | 69 | 1016.0 |
| 20260906114607 | 74 | 184 | 1.0 | 5.0 | 0.00 | 0.00 | 0.00 | 68 | 1015.9 |
| 20260906113108 | 74 | 170 | 0.0 | 4.0 | 0.00 | 0.00 | 0.00 | 68 | 1015.9 |
| 20260906111602 | 75 | 177 | 1.0 | 9.0 | 0.00 | 0.00 | 0.00 | 68 | 1015.7 |
| 20260906110100 | 75 | 188 | 2.0 | 7.0 | 0.00 | 0.00 | 0.00 | 66 | 1015.5 |
| 20260906104602 | 75 | 174 | 1.0 | 7.0 | 0.00 | 0.00 | 0.00 | 66 | 1015.4 |
| 20260906103105 | 75 | 178 | 1.0 | 5.0 | 0.00 | 0.00 | 0.00 | 67 | 1015.5 |
| 20260906101604 | 76 | 154 | 2.0 | 6.0 | 0.00 | 0.00 | 0.00 | 66 | 1015.5 |
| 20260906100107 | 76 | 0 | 1.0 | 3.0 | 0.00 | 0.00 | 0.00 | 65 | 1015.5 |
| 20260906094602 | 76 | 183 | 1.0 | 4.0 | 0.00 | 0.00 | 0.00 | 64 | 1015.7 |
| 20260906093102 | 76 | 180 | 4.0 | 7.0 | 0.00 | 0.00 | 0.00 | 63 | 1015.5 |
| 20260906091606 | 76 | 215 | 3.0 | 10.0 | 0.00 | 0.00 | 0.00 | 63 | 1015.5 |
| 20260906090123 | 76 | 221 | 4.0 | 10.0 | 0.00 | 0.00 | 0.00 | 63 | 1015.7 |
| 20260906084606 | 76 | 199 | 5.0 | 12.0 | 0.00 | 0.00 | 0.00 | 64 | 1015.6 |
| 20260906083112 | 76 | 191 | 5.0 | 11.0 | 0.00 | 0.00 | 0.00 | 63 | 1015.4 |
| 20260906081604 | 76 | 145 | 2.0 | 6.0 | 0.00 | 0.00 | 0.00 | 64 | 1015.6 |
| 20260906080103 | 77 | 0 | 1.0 | 7.0 | 0.00 | 0.00 | 0.00 | 63 | 1015.7 |
| 20260906074606 | 77 | 181 | 2.0 | 8.0 | 0.00 | 0.00 | 0.00 | 63 | 1015.8 |
| 20260906073101 | 77 | 197 | 2.0 | 7.0 | 0.00 | 0.00 | 0.00 | 62 | 1016.0 |
| 20260906071604 | 77 | 195 | 1.0 | 8.0 | 0.00 | 0.00 | 0.00 | 61 | 1015.9 |
| 20260906070106 | 77 | 180 | 3.0 | 7.0 | 0.00 | 0.00 | 0.00 | 61 | 1015.8 |
| 20260906064603 | 77 | 159 | 1.0 | 6.0 | 0.00 | 0.00 | 0.00 | 61 | 1015.7 |
| 20260906063105 | 77 | 177 | 1.0 | 7.0 | 0.00 | 0.00 | 0.00 | 61 | 1015.8 |
| 20260906061626 | 77 | 189 | 3.0 | 9.0 | 0.00 | 0.00 | 0.00 | 61 | 1016.2 |
| 20260906060121 | 77 | 195 | 4.0 | 9.0 | 0.00 | 0.00 | 0.00 | 59 | 1016.1 |
| 20260906054605 | 77 | 189 | 2.0 | 6.0 | 0.00 | 0.00 | 0.00 | 58 | 1016.0 |
| 20260906053102 | 78 | 166 | 1.0 | 4.0 | 0.00 | 0.00 | 0.00 | 58 | 1015.7 |
| 20260906051608 | 78 | 117 | 0.0 | 4.0 | 0.00 | 0.00 | 0.00 | 57 | 1015.5 |
| 20260906050111 | 79 | 162 | 1.0 | 6.0 | 0.00 | 0.00 | 0.00 | 56 | 1015.5 |
| 20260906044603 | 79 | 0 | 0.0 | 8.0 | 0.00 | 0.00 | 0.00 | 54 | 1015.2 |
| 20260906043105 | 80 | 178 | 2.0 | 11.0 | 0.00 | 0.00 | 0.00 | 53 | 1015.0 |
| 20260906041604 | 80 | 186 | 2.0 | 7.0 | 0.00 | 0.00 | 0.00 | 53 | 1014.9 |
| 20260906040101 | 81 | 190 | 3.0 | 9.0 | 0.00 | 0.00 | 0.00 | 52 | 1014.9 |
| 20260906034605 | 81 | 74 | 2.0 | 9.0 | 0.00 | 0.00 | 0.00 | 52 | 1015.0 |
| 20260906033101 | 81 | 193 | 3.0 | 10.0 | 0.00 | 0.00 | 0.00 | 52 | 1015.2 |
| 20260906031603 | 81 | 192 | 3.0 | 10.0 | 0.00 | 0.00 | 0.00 | 50 | 1015.0 |
| 20260906030109 | 82 | 0 | 3.0 | 13.0 | 0.00 | 0.00 | 0.00 | 50 | 1015.0 |
| 20260906024559 | 82 | 195 | 2.0 | 14.0 | 0.00 | 0.00 | 0.00 | 49 | 1014.9 |
| 20260906023109 | 82 | 188 | 2.0 | 10.0 | 0.00 | 0.00 | 0.00 | 50 | 1014.6 |
| 20260906021608 | 83 | 161 | 1.0 | 6.0 | 0.00 | 0.00 | 0.00 | 50 | 1014.4 |
| 20260906014607 | 84 | 83 | 2.0 | 9.0 | 0.00 | 0.00 | 0.00 | 48 | 1013.9 |
| 20260906013103 | 85 | 62 | 2.0 | 8.0 | 0.00 | 0.00 | 0.00 | 46 | 1013.9 |
| 20260906011608 | 86 | 67 | 2.0 | 11.0 | 0.00 | 0.00 | 0.00 | 46 | 1013.7 |
| 20260906010108 | 87 | 120 | 2.0 | 10.0 | 0.00 | 0.00 | 0.00 | 44 | 1013.7 |
| 20260906004605 | 89 | 83 | 1.0 | 10.0 | 0.00 | 0.00 | 0.00 | 40 | 1013.7 |
| 20260906003104 | 92 | 54 | 2.0 | 9.0 | 0.00 | 0.00 | 0.00 | 35 | 1013.6 |
| 20260906001605 | 93 | 97 | 4.0 | 14.0 | 0.00 | 0.00 | 0.00 | 31 | 1013.5 |
| 20260906000106 | 93 | 193 | 3.0 | 8.0 | 0.00 | 0.00 | 0.00 | 31 | 1013.8 |
| 20260905234609 | 94 | 196 | 4.0 | 14.0 | 0.00 | 0.00 | 0.00 | 30 | 1013.7 |
| 20260905233116 | 94 | 185 | 6.0 | 13.0 | 0.00 | 0.00 | 0.00 | 29 | 1013.5 |
| 20260905231602 | 96 | 208 | 4.0 | 14.0 | 0.00 | 0.00 | 0.00 | 27 | 1013.3 |
| 20260905230117 | 97 | 129 | 6.0 | 16.0 | 0.00 | 0.00 | 0.00 | 27 | 1013.2 |
| 20260905224604 | 98 | 189 | 6.0 | 14.0 | 0.00 | 0.00 | 0.00 | 27 | 1013.0 |
| 20260905223120 | 98 | 218 | 2.0 | 9.0 | 0.00 | 0.00 | 0.00 | 29 | 1012.9 |
| 20260905221604 | 98 | 197 | 5.0 | 15.0 | 0.00 | 0.00 | 0.00 | 29 | 1012.8 |
| 20260905220117 | 97 | 185 | 6.0 | 12.0 | 0.00 | 0.00 | 0.00 | 28 | 1013.0 |
| 20260905214625 | 97 | 181 | 3.0 | 14.0 | 0.00 | 0.00 | 0.00 | 31 | 1012.9 |
| 20260905213119 | 97 | 165 | 6.0 | 14.0 | 0.00 | 0.00 | 0.00 | 29 | 1013.1 |
| 20260905211616 | 97 | 150 | 6.0 | 16.0 | 0.00 | 0.00 | 0.00 | 29 | 1013.3 |
| 20260905210114 | 96 | 145 | 4.0 | 17.0 | 0.00 | 0.00 | 0.00 | 31 | 1013.6 |
| 20260905204601 | 95 | 195 | 5.0 | 13.0 | 0.00 | 0.00 | 0.00 | 32 | 1013.9 |
| 20260905203106 | 95 | 187 | 5.0 | 12.0 | 0.00 | 0.00 | 0.00 | 35 | 1014.3 |